Погода в Дмитряшевке

Россия / Липецкая область     52°09′07″N   39°04′15″E
темп.,
°C
ветер,
м/с
пор.,
м/с
влажн.,
%
обл.,
%
осадки,
мм/ч
давл.,
гПа
погр.,
м
4 декабря, сб
сб400:00+7ююз91783100 0.1 1002890
03:00+1зсз51096100 2.6 1006575
06:00+1з51086100 0.1 1008615
09:00−1з511835 0.1 1011487
12:000з697629 0.0 1012642
15:00−1зсз5779100 0.0 1013743
18:00−1зсз467198 0.0 1015817
21:00−2зюз24815 0.0 1015116
5 декабря, вс
вс500:00−2з24835 0.0 1016141
03:00−2зюз22835 0.0 101743
06:00−3ю118243 0.0 101713
09:00−2ююв2379100 0.0 1018114
12:000ююв236435 0.0 1018327
15:00−1юв236669 0.0 101788
18:00−2вюв337276 0.0 101861
21:00−2юв2673100 0.0 1018166
6 декабря, пн
пн600:00−2вюв3571100 0.0 1019161
03:00−2вюв3670100 0.0 1018185
06:00−2вюв3669100 0.0 1018209
09:00−2вюв3768100 0.0 1019232
12:00−1юв4671100 0.0 1019319
15:00−1вюв349098 0.0 1019284
18:00−1вюв3695100 0.1 1019238
21:00−1юв4895100 0.1 1019299
7 декабря, вт
вт700:000вюв4996100 0.0 1018324
03:000вюв51299100 1.9 1016381
06:00+1юв71398100 2.9 1014443
09:00+3ююв51398100 4.8 1013400
12:00+4ююв51299100 0.1 1013313
15:00+5ю51396100 0.5 1012289
18:00+4ююв51097100 0.3 1012175
21:00+4ююв41293100 0.4 1012205
8 декабря, ср
ср800:00+3ююв51387100 0.0 1012253
03:00+3ююв41292100 0.0 1012248
06:00+3юв41192100 0.0 1012231
09:00+3юв3990100 0.0 1013222
12:00+4юв41080100 0.0 1012380
15:00+4вюв3782100 0.0 1011250
18:00+3в3790100 0.0 1012171
21:00+3в3689100 0.0 1012201